Lid_Strength_Index
8 11 13 12 10 10 12 13 14 12 10 12 13 12 10 10 11 11 10 11 10 9 6 5 4 3 3 3 2 2 2 2 2 2 3 3 3 3 3 2 1 1 1 1
11 13 10 9 10 11 12 13 13 12 11 12 12 12 10 10 10 10 10 9 10 9 9 7 5 4 3 3 3 2 2 1 2 2 2 2 2 3 2 2 2 2 1 1
13 11 8 10 11 12 12 14 13 13 12 12 14 14 12 10 9 8 9 8 8 8 9 9 6 4 4 3 3 3 2 2 1 1 2 4 3 4 4 4 3 3 2 1
11 9 10 11 12 11 15 10 11 12 14 17 13 18 14 14 12 10 9 9 8 8 8 7 8 6 4 3 2 2 2 2 1 1 1 2 2 3 3 3 2 2 3 2
12 11 11 12 12 10 13 10 11 12 14 14 14 17 14 13 13 11 10 9 9 8 7 7 8 8 5 3 3 2 1 2 2 1 1 1 2 1 1 2 3 3 3 2
11 8 9 10 9 9 9 11 11 12 14 19 15 16 17 14 12 11 9 8 8 8 7 7 6 8 7 4 3 2 2 2 1 1 1 1 2 2 2 3 3 3 3 3
12 11 9 8 12 10 11 13 18 20 20 20 17 16 14 14 12 11 10 9 9 8 8 7 7 9 8 6 4 3 2 2 1 1 1 1 1 1 2 2 3 3 3 4
16 17 11 9 11 13 13 13 18 22 21 19 17 18 16 12 10 9 10 10 10 10 9 8 7 7 8 6 4 3 2 2 2 1 1 1 1 2 2 1 2 3 3 3
15 15 10 9 9 9 13 15 11 16 23 21 18 16 14 13 12 11 11 10 10 10 10 9 8 8 9 7 5 3 2 2 2 2 1 1 1 2 2 2 2 2 2 3
13 17 12 10 9 9 11 10 16 16 21 23 19 19 16 15 13 11 11 10 9 11 10 10 10 10 9 8 6 3 3 2 2 2 1 1 2 1 1 2 3 2 2 3
12 13 14 11 13 13 13 14 13 14 16 20 22 18 15 12 11 12 11 10 11 11 11 10 10 11 11 10 7 5 3 3 3 2 2 2 2 2 2 2 3 3 3 4
10 12 16 14 12 10 10 12 12 16 17 16 17 16 13 13 12 12 12 11 11 11 10 11 11 12 12 10 10 7 5 4 4 4 4 3 3 3 3 3 3 3 3 3
10 14 18 16 13 11 13 12 11 12 13 17 19 16 12 13 13 12 13 12 13 12 12 12 12 13 12 11 9 8 7 6 5 5 5 5 5 5 5 4 4 3 3 3
8 12 14 16 15 13 15 13 12 13 17 16 16 14 11 12 12 11 11 11 12 12 12 12 13 12 12 12 11 10 9 8 8 7 6 5 5 5 4 5 5 4 4 4
10 14 13 12 13 13 13 13 13 14 13 16 14 13 11 9 8 8 8 10 9 8 12 12 12 12 12 12 11 11 11 11 11 10 10 9 9 9 9 7 7 8 7 7
10 14 13 14 13 12 13 12 12 12 12 13 13 13 8 8 8 10 10 10 9 9 11 11 12 12 12 12 11 11 11 11 11 11 11 11 11 11 11 11 10 11 11 11
11 13 15 16 13 14 16 13 12 12 11 11 14 11 8 9 8 9 9 8 8 8 11 11 12 11 11 11 11 11 12 11 11 12 12 13 13 13 12 12 12 12 12 12
12 13 13 17 15 20 14 11 10 11 11 10 10 10 10 9 8 7 6 6 6 8 9 10 11 11 11 12 12 11 12 12 12 13 13 13 13 14 14 14 14 14 14 13
9 12 16 20 21 15 14 14 13 13 12 9 10 9 9 8 9 8 7 6 5 6 6 6 8 10 11 12 12 12 13 13 13 13 13 14 14 15 15 16 16 15 15 15
11 10 13 20 23 24 16 12 10 9 15 10 9 9 8 9 11 10 7 7 6 5 5 6 11 11 11 12 12 13 14 14 14 14 14 14 15 15 16 16 16 16 15 15
14 13 15 16 18 19 14 12 9 16 15 11 8 8 8 9 8 7 6 6 6 6 6 11 12 11 11 12 13 13 14 14 14 15 16 17 16 16 16 17 18 15 15 15
15 15 15 14 16 18 11 12 13 10 9 9 9 8 8 7 7 7 6 6 6 8 11 11 11 11 12 12 13 14 14 15 16 16 17 17 17 17 17 18 18 15 15 15
16 12 14 13 14 10 9 11 9 10 10 10 10 9 8 7 7 7 7 6 6 10 11 12 12 13 13 13 12 13 14 16 17 17 17 18 18 18 18 18 19 18 18 17
13 11 11 11 10 9 8 8 13 14 14 13 12 11 10 10 9 8 8 8 10 10 12 13 14 14 15 15 14 14 16 16 16 17 18 18 19 19 19 19 18 17 18 17
12 10 11 11 9 9 8 13 15 16 14 15 14 14 13 12 12 11 11 11 11 12 16 15 13 13 14 16 17 16 17 16 17 17 18 18 18 18 19 19 18 18 18 16
14 15 13 12 18 18 15 15 17 17 18 18 16 16 15 14 14 12 12 11 12 13 16 16 17 17 17 16 17 17 17 16 17 18 18 18 18 18 18 18 16 14 14 13